Notices

What's New in latest Release from April 7th, 2021:

- Updated Glossary, including Speed of Maximum Gust, and Total Hourly Precipitation

- Updated national and regional climate services offices contacts and prices information

- Addition of station inventory lists for 1981-2010, 1971-2000, and 1961-1990 Normals.

If you haven't already, please take our survey and provide feedback about our website: https://eccc.sondage-survey.ca/f/LanguageSelection.aspx?s=442ca660-fcf1-47c0-95a9-59707d6fd709

Hourly Data Report for October 28, 2006

TORONTO CITY
ONTARIO

43°40'00.000" N
79°24'00.000" W
112.50 m
6158355
71508
XTO

Download Data

Hourly Data (October 2006)
Hourly Data Report for October 28, 2006
TIME
LST
Temp Definition
°C
Dew Point Definition
°C
Rel Hum Definition
%
Precip. Amount Definition
mm

Wind Dir Definition
10's deg

Wind Spd Definition
km/h
Visibility Definition
km
Stn Press Definition
kPa
Hmdx Definition


Wind Chill Definition


Weather Definition


00:00 6.1 5.8 98   LegendMM LegendMM   98.50     LegendNANA
01:00 6.3 6.1 99   LegendMM LegendMM   98.34     LegendNANA
02:00 6.5 6.3 99   LegendMM LegendMM   98.13     LegendNANA
03:00 6.7 6.6 99   LegendMM LegendMM   97.99     LegendNANA
04:00 6.9 6.8 99   LegendMM LegendMM   97.83     LegendNANA
05:00 7.0 6.9 99   LegendMM LegendMM   97.70     LegendNANA
06:00 6.9 6.8 99   LegendMM LegendMM   97.63     LegendNANA
07:00 6.6 6.5 99   LegendMM LegendMM   97.56     LegendNANA
08:00 5.9 5.7 99   LegendMM LegendMM   97.52     LegendNANA
09:00 5.2 4.7 97   LegendMM LegendMM   97.53     LegendNANA
10:00 4.5 3.7 95   LegendMM LegendMM   97.47     LegendNANA
11:00 4.2 3.3 94   LegendMM LegendMM   97.50     LegendNANA
12:00 5.7 3.8 88   LegendMM LegendMM   97.42     LegendNANA
13:00 6.8 3.6 80   LegendMM LegendMM   97.36     LegendNANA
14:00 7.8 3.8 76   LegendMM LegendMM   97.33     LegendNANA
15:00 7.2 3.2 76   LegendMM LegendMM   97.33     LegendNANA
16:00 5.7 4.2 90   LegendMM LegendMM   97.39     LegendNANA
17:00 5.8 3.9 88   LegendMM LegendMM   97.43     LegendNANA
18:00 5.7 3.3 85   LegendMM LegendMM   97.43     LegendNANA
19:00 5.4 3.4 87   LegendMM LegendMM   97.40     LegendNANA
20:00 5.2 3.2 87   LegendMM LegendMM   97.43     LegendNANA
21:00 5.2 3.0 86   LegendMM LegendMM   97.46     LegendNANA
22:00 4.2 2.9 91   LegendMM LegendMM   97.51     LegendNANA
23:00 4.4 2.4 87   LegendMM LegendMM   97.54     LegendNANA

Notes on Data Quality.

Legend

  • E = Estimated
  • M = Missing
  • NA = Not Available*
  • [empty] = Indicates an unobserved value
Date modified: